Location: Eschentzwiller
(47.7125°N, 7.3981°E)
Time: 04:19:37
(UTC+00:00)

Cosmos 44 - Pass Details

Date: 27 October 2020
Orbit: 577 x 784 km, 65.1° (Epoch: 01 December)

Event Time Altitude Azimuth Distance (km) Brightness Sun altitude
Rises 17:47:55 0° 227° (SW) 2,866 7.3 -15.3°
Reaches altitude 10° 17:50:08 10° 230° (SW) 1,992 6.5 -15.7°
Maximum altitude 17:54:35 61° 311° (NW) 743 3.6 -16.4°
Enters shadow 17:59:02 12° 32° (NNE) 2,006 5.4 -17.2°
